Location: Mason Neck State Park
(38.6428°N, 77.1981°W)
Time: 11:18:37
(UTC-04:00)

Daily predictions for brighter satellites

Satellite Brightness Start Highest point End
(mag) Time Altitude Azimuth Time Altitude Azimuth Time Altitude Azimuth
In-Cosmos 22 4.1 19:48:14 10° N 19:53:31 64° E 19:58:44 10° SSE
GPS 2-05 Rocket1 3.4 19:53:02 10° WSW 19:56:25 47° S 19:59:54 10° E
Cosmos 1544 3.2 19:53:44 10° S 19:57:18 55° E 20:00:55 10° NNE
SeaSat 1 2.9 19:55:22 10° SE 20:00:01 43° ENE 20:04:41 10° NNW
FENGYUN 3A 3.7 19:59:19 10° SSE 20:04:40 69° ENE 20:10:02 10° N
Cosmos 1125 Rocket 3.4 20:00:17 10° S 20:05:27 75° ESE 20:10:40 10° NNE
Cosmos 2123 Rocket 4.1 20:00:52 10° N 20:07:13 88° W 20:13:28 10° S
Cosmos 1048 Rocket 4.1 20:04:16 10° N 20:09:16 53° ENE 20:14:16 10° SE
Cosmos 2344 4.4 20:03:02 10° SW 20:10:32 56° NW 20:19:00 10° NNE
Lacrosse 5 rocket 2.2 20:08:02 10° NNW 20:11:34 30° NE 20:14:25 13° E
Cosmos 1833 Rocket 2.9 20:07:27 10° NNW 20:12:57 52° ENE 20:18:24 10° SE
CZ-2D R/B 3.9 20:10:32 10° SE 20:14:05 36° ENE 20:17:42 10° N
Helios 1B rocket 3.5 20:11:11 10° NE 20:14:32 24° E 20:17:51 10° SSE
Cosmos 1805 3.4 20:12:55 10° S 20:16:47 79° W 20:20:43 10° N
Cosmos 1408 Rocket 4.0 20:12:47 10° N 20:17:03 42° E 20:21:16 10° SSE
ISS -3.5 20:15:41 10° WSW 20:18:55 67° NW 20:22:10 10° NE
HJ-1C 3.5 20:16:08 10° S 20:19:31 84° W 20:22:57 10° NNW
Resurs 1-3 3.7 20:16:14 10° SSE 20:20:30 54° ENE 20:24:48 10° N
ATLAS 5 CENTAUR R/B 1.7 20:17:08 10° SSW 20:21:46 82° ESE 20:26:48 10° NE
Cosmos 2278 Rocket 3.9 20:18:31 10° SW 20:23:43 36° WNW 20:28:57 10° N
SWAS 4.4 20:22:01 10° SSW 20:26:18 89° WNW 20:30:38 10° NNE
Meteor 1-21 Rocket 4.3 20:20:46 10° N 20:26:38 72° E 20:32:32 10° SSE
Cosmos 1733 3.5 20:25:19 10° SSE 20:29:00 45° E 20:32:43 10° NNE
CZ-3B DEB 4.3 20:22:20 10° W 20:31:56 34° NW 20:36:52 10° NNE
Cosmos 1076 Rocket 3.5 20:28:22 10° N 20:32:38 87° W 20:36:52 10° S
Cosmos 1470 2.8 20:32:00 10° S 20:35:55 60° E 20:39:49 10° NNE
Cosmos 1459 Rocket 4.0 20:32:14 10° SSE 20:38:18 56° E 20:44:19 10° NNE
Helios 1A 3.2 20:36:03 16° SE 20:39:11 46° ENE 20:43:12 10° N
Cosmos 2061 Rocket 4.2 20:33:11 10° SSE 20:39:21 53° E 20:45:35 10° NNE
Meteor 1-29 3.5 20:38:33 10° NNE 20:41:48 35° E 20:43:56 18° SSE
Lacrosse 5 4.4 20:40:00 10° WNW 20:43:31 18° NNW 20:47:02 10° NNE
Timation 2 Rocket 3.9 20:39:54 10° NNW 20:46:12 86° ENE 20:51:54 12° SSE
H-2A R/B 3.5 20:43:00 10° S 20:46:50 55° W 20:50:43 10° NNW
Cosmos 2173 Rocket 3.9 20:41:40 10° S 20:47:45 66° E 20:53:58 10° NNE
Cosmos 158 Rocket 4.2 20:46:29 10° NNW 20:51:39 74° WSW 20:56:55 10° S
USA 215 3.7 20:46:48 10° ENE 20:52:42 35° SE 20:58:34 10° S
COSMOS 2487 3.6 20:49:34 10° NNW 20:52:59 44° WSW 20:56:23 10° S
SAR-Lupe-4 3.4 20:51:47 24° SSE 20:53:50 76° ENE 20:57:26 10° N
Cosmos 2251 Rocket 4.0 20:49:01 10° N 20:54:03 41° ENE 20:56:03 30° ESE
Cosmos 1340 Rocket 2.6 20:51:20 10° N 20:55:21 76° E 20:57:45 23° SSE
Cosmos 2082 Rocket 2.6 20:49:45 10° NNW 20:55:22 62° WSW 21:00:54 10° S
Cosmos 1356 Rocket 3.9 20:53:30 10° N 20:57:16 35° ENE 20:57:27 35° E
YAOGAN 6 4.4 21:01:03 18° NE 21:01:03 18° NE 21:02:47 10° NNE
Cosmos-2242 3.4 20:56:33 10° SSW 21:00:46 63° W 21:04:59 10° N
BREEZE-M DEB (TANK) 3.1 21:01:22 10° WSW 21:04:42 87° NNW 21:15:51 10° ENE
Cosmos 1766 Rocket 4.4 21:00:34 10° NNW 21:04:56 53° W 21:09:16 10° S
Meteor 1-16 Rocket 4.3 21:02:08 10° S 21:07:52 63° E 21:13:43 10° NNE
Cosmos 1271 Rocket 4.0 21:08:24 10° SSW 21:12:14 43° WNW 21:16:06 10° N
SAR-Lupe-1 4.2 21:11:15 37° S 21:12:30 70° WSW 21:16:06 10° NNW
GP-B 3.9 21:08:39 10° SSW 21:12:58 52° W 21:17:19 10° NNW
Meteor 1-11 4.4 21:07:38 10° N 21:13:04 50° ENE 21:14:31 40° ESE
SL-14 R/B 3.3 21:11:43 10° N 21:15:15 56° ENE 21:15:15 56° ENE
Gblst 52 Del rocket 4.1 21:09:39 10° SW 21:15:44 78° SE 21:19:15 24° NE
Cosmos 1674 4.4 21:13:24 10° NNW 21:16:49 32° W 21:20:15 10° SSW
Cosmos 494 Rocket 3.8 21:13:33 10° NNW 21:18:40 69° ENE 21:19:57 49° SE
Cosmos 2016 Rocket 3.9 21:13:55 10° S 21:20:08 86° E 21:26:19 10° N
USA 186 4.0 21:22:51 17° WNW 21:22:51 17° WNW 21:23:58 10° NW
Cosmos 389 Rocket 4.1 21:24:14 25° NNE 21:24:14 25° NNE 21:25:49 10° NNE
Resurs 01 Rocket 3.8 21:20:22 10° SSW 21:23:57 24° W 21:27:35 10° NW
Cosmos 1328 3.6 21:21:00 10° N 21:24:59 89° W 21:25:05 85° S
CZ-4C R/B 3.0 21:23:46 10° SSW 21:33:11 16° NE 21:34:21 10° NE
Cosmos 1184 Rocket 3.5 21:25:34 10° NNW 21:28:29 54° WNW 21:28:29 54° WNW
Cosmos 1725 Rocket 3.8 21:26:22 22° S 21:30:33 72° E 21:36:44 10° NNE
Cosmos 2058 3.9 21:26:32 10° N 21:29:16 36° NNE 21:29:16 36° NNE
Envisat 3.2 21:31:29 34° S 21:33:43 70° WSW 21:38:48 10° NNW
GPS 2-05 Rocket1 4.4 21:30:44 10° W 21:32:57 31° WSW 21:32:57 31° WSW
Cosmos 1743 Rocket 4.3 21:31:35 10° NNW 21:35:55 52° W 21:37:42 31° SSW
Meteor 2-1 Rocket 4.1 21:35:33 60° SE 21:36:08 63° E 21:41:44 10° NNE
Cosmos 1500 Rocket 3.6 21:32:15 10° NNW 21:36:34 72° W 21:36:55 68° SW
OAO 2 Rocket 3.8 21:31:39 10° WSW 21:36:08 47° S 21:36:08 47° S
Cosmos 1939 Rocket 3.3 21:41:39 58° WSW 21:41:49 59° W 21:45:56 10° NNW
ERS-1 Rocket 2.8 21:43:12 76° ENE 21:43:12 76° ENE 21:48:10 10° N
Cosmos 2369 Rocket 2.0 21:37:40 10° SSW 21:43:17 73° ESE 21:48:54 10° NNE
Lacrosse 5 rocket 3.0 21:47:27 10° WNW 21:50:09 25° WSW 21:50:09 25° WSW
Cosmos 2151 3.6 21:48:03 10° NNW 21:51:27 52° NW 21:51:27 52° NW
ISS -0.8 21:54:04 10° NW 21:55:50 14° NNW 21:55:50 14° NNW
Tsikada Rocket 3.9 21:50:06 10° N 21:56:21 85° W 21:57:31 62° S
H-2A R/B 3.7 21:59:47 23° NNE 21:59:47 23° NNE 22:02:13 10° N
NOAA 11 4.5 22:04:43 59° NNE 22:04:43 59° NNE 22:09:15 10° N
SPOT 5 4.1 22:31:28 43° NNW 22:31:28 43° NNW 22:35:01 10° NNW
Terra 4.3 22:35:21 14° N 22:35:21 14° N 22:36:02 10° N
Cosmos 2233 Rocket 4.4 22:33:29 58° WNW 22:33:29 58° WNW 22:39:20 10° N
ARGOS 4.3 22:36:22 40° NNW 22:36:22 40° NNW 22:39:45 10° NNW
USA 215 3.6 22:29:26 10° NE 22:35:52 62° NW 22:42:17 10° WSW
USA 267 4.2 23:08:51 42° N 23:08:51 42° N 23:13:25 10° NW
CZ-4C R/B 4.2 23:17:57 25° NW 23:17:57 25° NW 23:22:33 10° NNE
